Theta_e
322 321 320 322 322 323 325 325 325 325 321 316 315 316 321 323 323 323 322 324 327 325 327 328 326 327 329 329 333 336 337 340 342 342 343 342 338 338 339 339 339 339 338 336 337 339 338 333 325 321 318 321 329 332 332 333 334 335 334 333 334 335 336 336 337 337 336 335 334 334 335 336 335 333 331 332 333 332 332 332 331 330 330 330 331 331 331 331 331 331 331 331 331 331 330 330 330
323 323 322 322 321 323 328 326 323 321 317 314 316 317 319 322 323 322 323 325 326 325 328 329 326 326 326 327 329 335 339 338 338 339 340 338 338 339 339 338 338 339 338 338 339 339 337 330 324 322 319 322 329 332 333 334 333 333 333 333 335 335 335 336 337 336 335 335 333 332 333 334 335 333 331 331 331 332 333 333 332 331 331 331 331 331 331 330 331 330 330 330 330 330 330 330 330
322 322 322 322 322 323 326 325 322 318 314 313 315 318 319 321 324 325 325 326 327 327 330 328 327 326 326 327 327 336 340 337 336 336 338 338 338 338 338 338 338 339 337 339 340 339 337 328 323 321 319 324 330 332 333 334 333 333 334 334 335 335 334 335 336 336 335 333 332 330 332 334 334 333 332 331 331 331 332 332 331 330 330 330 331 331 330 330 330 330 330 330 330 330 329 329 330
322 321 320 322 325 324 325 325 325 319 314 312 314 318 321 324 326 325 324 326 328 328 328 326 328 328 326 328 329 337 340 337 336 336 337 337 337 338 338 338 339 339 338 339 339 339 337 329 322 319 318 323 330 333 333 333 333 333 334 334 334 335 334 335 335 335 334 332 330 330 332 333 333 332 331 331 330 331 331 332 331 330 330 330 330 330 330 330 330 330 330 330 330 330 329 328 329
322 322 320 321 325 325 326 326 326 321 315 314 313 318 322 325 326 323 323 325 325 327 326 325 329 328 325 329 332 336 338 337 336 336 336 337 338 338 337 338 338 338 338 339 339 339 337 329 322 320 318 321 330 332 333 333 333 333 333 333 333 334 334 334 335 335 334 332 329 329 332 332 332 331 330 330 330 330 330 331 332 332 332 331 330 329 330 330 330 330 330 330 330 329 328 327 328
321 321 320 320 324 324 325 323 321 319 318 319 315 318 322 323 324 323 323 323 324 325 324 326 325 326 329 331 335 336 337 337 337 337 337 337 337 338 337 337 337 337 338 338 338 338 337 329 321 320 318 321 329 332 333 333 333 333 333 333 333 334 334 334 335 335 334 331 329 329 331 331 331 330 329 329 329 330 330 331 331 332 332 332 331 330 330 329 329 330 329 329 329 328 328 327 328
321 322 324 322 323 324 325 322 320 319 317 320 318 319 322 322 324 323 323 322 322 323 323 327 322 324 329 330 336 336 336 337 337 338 337 336 338 338 336 336 336 336 336 338 339 338 337 329 322 321 318 320 327 332 333 333 333 333 333 333 333 334 334 334 335 334 334 332 330 329 330 330 330 330 329 329 329 330 331 332 332 332 331 330 330 330 330 330 330 330 329 329 328 329 328 328 327
319 324 327 325 326 325 324 324 322 320 318 318 320 320 321 322 322 321 322 321 321 322 323 324 321 323 325 330 337 335 336 338 337 337 336 336 338 338 337 336 335 336 336 338 338 337 337 331 323 320 319 318 323 330 333 332 332 332 332 331 332 333 333 334 334 334 334 332 330 328 329 329 329 329 328 328 328 330 331 331 331 331 331 330 329 330 330 330 330 330 329 328 328 328 328 327 327
318 323 327 326 327 325 322 324 320 318 319 318 319 321 320 321 321 321 320 320 320 322 322 322 322 321 322 333 338 335 336 337 337 337 336 336 338 338 338 336 335 336 336 338 338 337 338 333 324 321 320 318 320 326 329 330 331 331 331 331 332 332 332 333 332 331 332 332 330 327 326 328 328 328 328 328 328 329 330 331 331 331 331 330 329 328 328 329 328 328 328 327 327 327 327 326 326
320 322 324 325 325 323 319 320 321 319 320 319 319 319 320 320 320 321 319 318 319 321 323 322 320 317 323 335 338 336 336 337 337 337 336 337 337 338 338 336 336 336 337 339 338 337 338 334 326 322 320 318 318 320 324 327 328 330 331 332 332 331 331 331 331 331 331 331 330 328 326 327 329 328 328 327 328 329 330 330 331 330 330 329 328 327 326 327 326 326 326 326 327 327 327 325 324
323 321 323 325 323 320 318 318 320 320 319 319 319 319 319 320 321 321 318 318 319 322 323 320 320 318 324 338 340 336 335 336 337 337 337 337 336 337 338 337 337 338 339 339 339 337 337 334 327 324 322 319 318 317 320 325 327 329 331 332 331 331 330 330 330 331 331 330 330 329 327 327 328 329 329 328 328 329 330 330 331 330 330 330 328 327 326 325 325 325 325 326 326 325 325 324 323
325 325 324 323 322 321 321 319 320 320 319 319 319 319 319 320 321 320 318 318 317 321 320 319 321 316 324 340 341 336 336 336 336 336 336 336 335 336 338 339 339 340 340 339 340 338 337 335 328 325 324 320 319 317 318 321 325 327 329 331 331 330 330 330 329 329 327 327 330 330 328 327 327 329 329 328 327 327 329 329 330 330 330 329 328 327 325 324 324 325 325 326 326 325 324 323 323
326 328 324 322 325 324 322 321 320 321 320 319 319 319 319 319 321 320 319 318 317 320 319 319 319 317 330 342 341 336 336 336 336 336 335 335 335 336 338 339 339 340 340 339 340 339 338 336 330 326 324 322 320 318 317 318 321 322 325 328 328 328 329 330 329 327 324 325 329 329 327 326 327 328 329 329 326 325 327 329 329 330 330 329 328 326 324 323 324 324 324 325 326 326 325 324 324
327 328 325 325 327 325 323 321 320 320 319 319 319 318 320 319 320 320 318 318 317 320 320 320 318 319 332 340 340 337 336 336 336 336 335 335 335 336 338 338 339 340 341 340 340 340 339 338 334 328 324 323 322 321 319 318 319 319 321 324 325 327 329 329 328 326 323 324 326 326 324 324 325 327 328 329 327 324 325 328 329 329 329 329 327 324 322 322 322 323 324 325 325 325 325 324 324
327 329 327 328 326 323 324 323 320 320 319 320 319 318 320 318 319 319 317 318 318 319 319 321 322 319 327 336 339 338 336 336 336 336 335 335 334 336 337 337 338 340 340 340 340 339 340 339 337 332 328 325 324 323 320 319 319 319 319 321 322 326 329 328 327 327 326 325 325 325 322 321 323 326 328 328 327 325 324 326 328 329 328 328 327 323 321 322 322 322 322 323 323 323 324 324 324
326 328 327 327 325 321 322 323 321 319 320 320 319 319 319 317 318 318 316 318 318 318 318 320 321 321 331 337 337 336 336 337 336 336 336 335 334 336 337 337 338 339 339 339 339 339 339 339 338 335 335 331 328 328 325 321 319 318 318 318 319 322 327 328 327 326 326 326 324 323 320 319 320 323 327 327 327 325 323 324 325 327 326 326 326 323 321 321 321 320 320 320 321 321 322 323 324
324 327 328 325 324 322 320 322 321 319 319 319 319 319 318 318 317 316 315 316 316 317 319 321 320 325 337 340 336 337 337 336 337 336 336 335 335 335 336 336 338 339 339 339 339 339 339 339 339 337 337 335 333 333 330 325 321 319 318 318 317 318 322 325 326 324 324 323 321 322 323 323 321 322 324 325 327 325 324 324 323 325 324 323 322 322 321 320 319 318 319 319 319 320 321 321 321
324 328 327 323 324 322 319 320 320 319 320 319 319 318 318 317 316 316 315 316 316 317 320 322 323 327 336 339 336 337 336 336 337 337 336 336 335 335 335 336 337 338 338 339 339 339 339 339 339 338 338 336 334 334 334 331 327 322 319 319 317 317 318 321 322 322 321 319 321 326 328 328 327 325 322 321 325 325 325 323 322 323 322 321 319 321 321 318 318 318 319 318 319 321 322 322 321
325 327 325 324 323 320 318 318 318 319 319 318 319 319 318 317 317 316 315 316 315 317 319 321 326 327 333 338 337 337 337 337 337 336 336 336 335 334 335 335 336 337 337 338 339 339 339 339 339 338 338 337 335 334 335 334 332 327 325 322 319 319 316 318 321 321 323 321 323 329 329 327 328 328 322 321 323 321 323 322 320 320 319 318 317 319 320 317 317 318 318 318 322 325 324 325 324
323 325 325 324 320 318 317 317 317 318 318 317 318 319 318 317 316 316 316 317 315 317 318 319 325 327 332 338 337 337 337 337 336 336 336 335 335 334 335 335 335 336 336 337 338 338 339 339 339 338 338 337 336 334 334 335 333 331 331 328 325 325 318 320 327 325 328 327 325 329 329 327 326 327 321 318 321 317 317 317 316 317 316 316 316 318 318 316 317 317 317 318 322 324 324 325 324
321 323 324 322 318 318 316 315 316 317 318 317 318 318 318 317 316 316 316 317 315 316 318 317 322 327 333 337 336 336 336 337 336 336 336 335 335 334 335 335 335 335 335 336 337 338 338 338 338 338 337 337 336 334 333 334 333 332 334 332 330 331 325 325 330 328 330 329 326 329 330 325 325 328 319 314 321 320 316 313 313 316 316 315 316 319 319 318 318 317 316 319 323 323 323 325 324
321 320 319 319 318 317 315 315 316 317 318 317 317 317 317 316 316 316 316 316 315 315 316 317 322 327 334 337 335 336 336 336 336 336 336 335 336 335 335 335 335 335 335 335 336 337 337 338 338 338 337 336 336 334 333 333 333 332 334 333 331 332 330 329 331 329 330 329 325 329 331 324 324 328 320 316 325 326 322 318 318 321 322 318 317 321 323 321 320 319 318 320 323 323 324 324 322
320 319 317 318 317 316 315 315 316 317 317 317 316 317 316 316 316 316 317 315 315 315 314 317 324 329 334 336 335 336 337 336 336 336 336 336 336 336 336 336 336 335 335 335 335 336 337 337 337 337 338 336 336 335 333 332 332 332 333 334 332 331 331 331 331 330 331 329 324 328 330 324 324 328 324 321 326 327 325 325 325 326 325 321 318 322 325 322 320 322 322 322 323 323 321 320 317
319 318 317 317 316 315 315 314 315 316 316 316 316 316 316 316 316 316 317 315 314 315 314 316 323 330 334 335 335 336 337 336 336 336 336 336 336 336 336 336 336 336 335 335 335 335 336 337 337 337 338 337 336 335 334 333 332 332 333 333 332 331 331 331 331 331 331 330 327 326 328 326 325 328 327 323 324 326 326 326 326 326 326 323 321 323 325 321 317 321 323 323 322 319 317 316 314
318 318 316 316 314 313 313 313 314 314 315 315 316 316 316 316 315 315 316 315 315 315 316 318 322 328 333 334 335 336 336 336 337 337 337 337 336 337 337 337 336 336 335 335 334 335 335 336 337 337 337 337 336 335 334 334 332 332 332 333 332 332 331 331 331 331 331 331 329 327 326 327 327 327 327 326 323 324 326 326 326 326 325 324 323 322 322 319 316 319 321 321 320 318 318 318 317
317 317 316 315 314 313 313 313 314 314 314 314 316 316 315 314 314 315 316 315 315 317 318 320 322 325 329 332 333 335 335 336 336 337 337 337 337 337 337 337 337 336 335 335 334 334 335 335 336 337 337 337 337 336 334 334 333 333 333 332 332 331 331 331 330 331 330 330 330 329 326 326 328 327 327 327 326 325 325 325 324 324 324 324 322 321 319 317 317 318 319 319 319 318 319 319 319
317 317 316 315 314 314 314 314 314 315 314 314 316 316 315 314 314 316 315 314 314 317 318 319 320 322 325 328 330 331 333 335 336 336 336 337 337 337 337 337 337 336 335 335 335 335 335 335 336 336 337 337 337 336 335 335 334 333 333 333 333 332 331 330 331 330 330 330 329 330 328 326 327 328 327 327 327 326 326 325 324 323 323 323 322 320 318 316 316 318 318 317 317 318 318 319 319
317 316 316 315 315 315 315 315 314 315 314 314 315 316 315 314 315 316 315 313 314 316 319 318 319 321 322 326 329 329 330 333 335 336 336 336 337 337 336 337 336 336 335 335 335 335 335 335 336 336 336 337 336 336 336 335 335 333 333 333 333 333 332 331 331 330 330 330 330 329 329 328 327 327 328 327 327 327 326 326 326 324 323 323 323 322 320 318 316 315 315 315 315 316 317 318 319
316 316 316 315 315 315 315 315 315 316 315 314 314 315 316 315 315 315 314 313 314 315 318 319 319 320 322 326 330 331 329 331 334 334 336 336 337 337 336 336 336 335 335 335 335 335 335 335 335 335 336 336 336 336 336 335 335 334 333 332 333 334 333 332 331 331 330 330 330 329 330 329 328 327 327 328 328 327 327 326 327 326 325 324 324 323 322 321 319 316 314 314 314 313 312 313 315
316 316 316 316 316 315 316 315 315 316 315 314 314 315 316 316 315 314 313 314 315 315 318 320 319 320 325 327 331 333 330 330 333 334 336 337 336 336 336 336 336 335 335 335 335 335 335 335 335 335 335 336 336 336 336 336 335 335 334 332 332 333 334 333 331 331 330 331 330 330 329 329 329 328 328 328 328 328 327 327 327 326 326 325 325 324 323 323 322 320 318 318 319 317 315 314 312
316 316 316 318 316 314 316 316 315 315 314 313 314 315 316 316 315 313 313 314 314 314 316 319 318 319 324 329 331 333 330 330 332 334 335 336 336 335 335 335 335 335 335 336 335 335 334 335 335 335 335 335 336 335 336 336 335 335 335 334 333 333 334 334 333 331 330 331 330 330 329 329 329 328 328 328 328 328 327 327 327 327 326 326 325 325 325 325 323 322 320 320 321 321 321 320 317
316 316 317 318 317 315 316 315 315 316 314 313 314 314 315 315 314 313 313 314 314 314 315 316 318 318 321 325 328 330 331 330 331 333 334 334 335 335 335 335 335 335 335 336 336 335 335 335 334 335 335 335 336 335 335 336 336 335 336 335 334 332 333 333 333 333 332 331 331 330 330 329 328 328 328 328 328 327 328 327 327 327 327 326 325 325 325 325 324 323 321 321 321 321 322 322 321
316 318 317 318 317 316 316 315 316 317 315 314 314 314 315 315 314 313 313 314 313 314 315 315 316 317 319 322 324 326 328 331 331 331 332 334 334 335 335 334 334 335 335 336 336 335 335 334 334 334 334 335 335 336 335 334 335 335 335 336 335 334 333 332 332 333 333 332 332 331 330 330 328 328 328 328 328 327 327 327 327 327 326 326 326 326 326 326 326 325 323 323 322 322 321 321 321
316 317 317 318 316 315 315 315 316 318 316 314 314 314 314 316 315 313 313 314 313 314 314 315 316 316 317 319 321 321 324 329 331 329 330 332 333 334 335 334 334 334 334 335 335 335 335 335 334 334 334 334 334 335 334 334 335 335 335 335 335 335 334 333 332 332 332 332 332 332 331 330 329 328 328 327 327 327 327 327 327 326 326 326 327 327 327 327 327 326 326 324 323 323 322 322 321
316 316 317 318 316 315 316 315 316 317 316 315 315 314 314 315 315 313 313 314 314 315 315 315 316 316 318 318 318 318 320 323 326 327 329 331 332 333 334 334 334 334 334 335 335 335 335 335 335 334 334 334 333 334 334 334 334 334 335 335 335 335 334 334 333 332 332 332 332 332 331 331 331 331 330 328 327 327 327 327 327 327 327 327 327 328 328 327 327 326 325 325 324 323 323 323 323
317 317 317 318 317 314 316 316 315 316 315 315 316 315 314 315 315 314 314 315 315 315 316 316 317 317 318 318 319 319 319 320 320 324 328 330 332 333 333 334 334 334 334 335 335 335 335 335 335 334 334 334 334 333 333 333 333 334 334 334 334 334 334 334 334 333 333 332 332 332 331 331 331 330 329 328 328 328 328 326 325 325 327 327 327 327 328 327 326 325 325 324 324 323 323 323 323
317 316 316 318 318 314 315 315 314 315 316 315 316 315 316 316 316 315 314 315 317 316 316 318 318 319 319 319 321 321 322 322 318 319 324 328 331 332 333 333 333 334 335 334 335 335 335 335 335 335 334 334 333 333 333 333 333 333 333 333 334 333 333 333 333 333 333 333 332 332 331 331 330 329 329 329 329 330 328 326 325 325 326 327 328 328 328 328 326 325 325 324 324 323 323 323 322
317 316 314 317 318 315 315 315 314 314 315 316 316 315 316 316 316 317 315 315 316 317 316 317 318 319 320 322 324 325 327 325 318 316 317 320 324 327 330 331 331 332 333 334 334 334 335 335 334 335 334 333 333 333 332 332 332 332 332 332 332 332 332 331 332 332 332 332 332 333 332 331 331 331 331 331 330 330 328 327 328 328 328 328 328 328 327 327 326 325 324 324 323 323 323 323 321
318 318 316 316 318 316 315 314 314 314 313 315 317 317 317 317 317 317 316 316 316 318 318 319 320 319 320 323 326 327 329 327 323 318 315 314 315 317 320 324 327 329 330 331 333 333 334 334 334 335 335 334 333 332 332 332 331 331 331 331 331 331 331 331 331 331 331 332 332 332 332 331 331 331 332 331 329 328 328 329 329 328 328 329 329 328 327 327 326 325 325 324 323 323 322 322 321
318 319 317 317 318 317 315 314 314 314 312 314 317 317 316 315 316 317 317 317 318 318 319 320 321 320 321 325 327 325 324 324 323 320 315 313 313 312 313 314 317 321 325 328 330 331 332 333 334 334 334 334 333 332 332 332 331 331 331 331 331 330 330 331 331 331 332 332 333 332 332 332 331 331 331 331 330 329 330 330 329 328 328 328 329 328 327 327 327 327 326 325 324 323 322 322 322
319 321 319 320 319 318 318 315 314 314 313 316 315 315 318 317 315 317 316 315 316 316 317 318 319 319 320 323 325 322 321 322 322 321 316 313 313 313 312 311 311 313 316 321 326 328 330 331 332 333 333 333 333 332 331 332 332 331 331 330 331 331 331 331 331 331 332 331 332 332 332 332 331 331 331 330 331 330 330 330 330 329 329 329 329 329 328 327 327 327 326 325 324 323 322 322 322
319 322 320 319 318 318 318 316 315 314 315 318 314 314 321 321 314 315 315 313 314 315 316 317 319 320 320 321 324 324 324 323 320 320 318 315 314 314 313 311 311 311 312 316 322 325 327 329 330 331 332 332 332 332 331 331 332 331 331 330 330 330 330 331 330 330 330 330 330 330 330 330 330 330 330 330 330 330 330 330 330 330 330 330 329 329 329 328 327 327 327 325 324 324 323 322 321
315 322 321 316 319 321 318 317 318 317 315 316 315 315 320 321 315 315 315 314 316 316 316 318 319 320 320 322 324 323 324 323 320 319 318 317 317 316 315 313 312 311 311 313 318 323 325 327 329 330 331 332 331 331 331 331 331 330 330 331 331 330 330 330 329 329 328 328 328 328 328 328 327 328 329 329 329 329 330 330 330 330 329 329 330 329 328 328 327 327 327 326 325 325 324 322 321
316 325 325 317 319 323 321 319 320 320 317 315 316 317 316 320 319 314 314 314 316 317 317 319 319 318 320 322 322 322 322 323 323 322 319 316 316 316 315 314 313 312 311 311 314 318 321 323 326 328 329 330 330 330 329 329 329 329 329 330 330 330 329 328 328 328 327 327 327 327 327 327 327 327 327 327 327 327 327 328 328 328 328 328 329 328 328 328 328 327 327 326 325 325 324 323 322
319 325 326 319 319 323 323 322 321 320 319 317 319 317 314 319 320 313 314 313 314 317 318 318 319 319 320 320 321 321 321 320 322 323 319 315 315 314 314 313 313 312 312 311 311 313 317 321 324 325 326 327 328 328 328 327 326 327 328 328 328 328 327 327 327 327 327 327 327 327 327 326 326 325 325 325 325 325 325 325 325 325 326 326 326 327 327 327 328 327 327 326 326 326 325 325 323
320 324 326 325 324 324 323 325 324 318 318 322 321 317 315 320 320 313 313 314 313 316 317 318 320 321 321 320 320 321 320 320 320 319 316 314 313 313 313 313 313 313 313 312 311 312 315 319 321 323 324 325 326 327 327 326 325 326 326 326 326 326 325 326 326 325 325 325 325 324 324 324 323 323 323 323 323 323 323 323 323 323 324 324 325 325 325 326 326 325 325 325 326 326 326 325 323
322 324 324 324 324 323 322 324 323 318 320 324 322 317 314 319 323 317 313 315 315 316 318 318 319 320 320 320 320 320 320 320 320 317 314 313 314 314 314 314 315 316 316 315 315 315 316 318 320 322 323 323 323 324 325 324 324 325 325 325 325 325 325 325 325 324 323 322 322 321 321 321 321 320 321 321 320 320 319 320 320 320 321 321 322 322 323 323 323 323 323 323 323 324 323 323 323
323 323 320 321 321 320 320 319 319 320 323 320 317 319 317 318 321 316 312 315 315 317 319 318 319 319 319 320 320 320 320 320 320 319 316 314 314 314 315 315 316 318 318 318 318 319 319 320 321 322 322 323 323 323 324 323 323 324 324 324 324 324 324 324 324 323 322 321 321 321 321 320 320 319 319 319 318 318 318 318 318 318 318 318 319 319 319 320 320 321 321 321 321 321 321 322 322
323 321 319 323 323 319 320 320 320 322 320 314 313 318 318 317 316 312 313 315 316 318 319 318 318 319 320 320 320 320 321 321 321 321 321 317 314 314 315 315 316 317 319 320 319 319 320 320 320 319 320 321 322 322 323 322 322 323 323 324 324 324 324 323 322 321 320 319 319 319 319 318 318 318 318 318 318 318 318 318 318 318 318 318 317 317 317 317 317 317 318 318 319 319 319 319 320
321 319 319 326 324 318 319 321 320 320 317 314 314 316 318 317 314 314 315 314 317 320 320 320 320 320 321 320 320 321 321 322 321 321 322 318 314 314 314 314 314 315 317 318 319 319 319 320 319 318 318 319 319 320 321 321 321 321 321 321 321 321 321 319 317 317 317 317 317 317 316 316 316 316 316 316 316 315 314 314 314 314 314 315 315 316 315 315 314 314 314 315 316 316 316 316 317
321 320 321 324 322 319 320 320 323 324 319 313 313 316 319 318 314 313 313 312 315 317 319 322 321 320 321 320 320 320 319 319 320 319 319 314 312 313 313 313 314 314 314 315 315 316 316 317 317 317 318 317 317 318 318 318 318 317 317 317 317 316 316 316 315 315 314 313 314 314 314 314 314 313 313 312 311 310 308 308 308 309 309 309 311 312 313 314 314 313 313 313 313 314 314 314 315
321 322 322 320 320 324 322 318 322 326 322 317 316 319 320 316 313 312 311 313 313 314 316 318 318 318 319 319 319 318 318 318 318 318 316 312 311 312 312 311 312 312 313 313 313 313 313 313 313 314 314 315 315 315 315 314 314 314 314 314 314 314 314 314 314 313 311 310 310 310 310 310 310 309 309 308 307 306 306 306 306 306 306 306 307 308 309 311 312 312 312 312 312 312 312 312 313
320 321 321 318 319 325 323 317 316 318 320 321 318 319 317 313 312 312 311 313 312 313 315 315 316 317 318 319 320 319 319 319 318 317 315 311 310 310 310 310 310 310 311 311 311 311 311 311 311 311 311 311 312 312 311 311 310 310 310 310 310 311 311 311 310 309 308 308 307 307 307 307 307 307 306 306 306 306 306 306 305 305 305 305 305 305 306 306 307 308 308 309 310 310 310 310 310
321 323 321 316 317 321 318 315 316 316 316 317 317 317 315 312 313 313 311 312 312 313 314 314 316 317 319 321 321 320 319 317 316 316 312 309 309 309 308 308 308 308 309 309 309 309 309 309 309 309 309 309 309 310 309 308 308 308 308 307 308 308 308 308 307 307 307 307 307 306 306 306 306 306 305 306 305 305 305 305 305 305 304 304 304 304 304 304 304 305 305 306 306 306 306 306 306
318 320 320 317 318 319 315 313 318 320 315 315 317 316 314 315 314 314 313 312 312 312 314 315 315 316 319 321 320 319 317 316 315 315 313 309 308 308 308 307 307 307 307 307 307 307 307 307 307 307 307 307 307 307 307 307 306 306 306 307 307 307 307 307 307 306 306 306 306 306 305 305 305 305 305 305 305 304 304 304 304 303 303 303 303 303 303 303 303 303 303 303 303 303 303 303 303
314 315 317 317 318 318 318 315 317 322 317 315 317 316 319 322 318 316 315 312 311 312 314 314 314 316 318 319 319 317 317 317 316 316 314 309 307 308 307 307 307 307 307 306 306 306 306 306 306 306 306 306 306 306 306 306 305 306 306 306 306 306 306 306 306 306 306 305 305 305 305 305 304 304 304 304 304 303 303 303 302 302 302 302 302 302 302 301 302 301 301 301 301 301 301 301 301
315 315 315 316 316 316 319 319 318 320 317 316 315 316 323 323 315 315 315 311 311 311 313 314 314 316 318 318 318 317 317 318 316 316 313 308 306 307 306 306 307 306 306 306 306 306 305 305 305 305 305 305 305 305 305 305 305 305 306 305 305 305 305 305 305 305 305 305 304 304 303 303 303 302 302 301 301 301 301 300 300 300 300 300 300 300 300 300 300 300 300 300 300 300 300 300 300
316 316 315 316 317 317 319 319 319 317 315 318 315 317 327 320 309 312 314 311 312 311 313 315 314 316 318 318 318 317 317 317 316 315 311 306 306 307 306 306 306 306 306 305 305 305 305 305 304 304 305 305 304 304 305 305 305 305 305 305 305 305 304 304 304 304 303 302 301 301 300 300 300 299 299 298 298 298 298 297 297 297 297 298 298 298 299 299 299 299 298 298 299 299 299 299 299
Wind_Speed
5 6 5 4 5 7 6 3 2 2 3 2 2 3 3 4 4 5 6 4 4 4 4 5 6 6 3 2 9 10 8 6 4 2 2 7 14 17 20 23 21 18 17 15 13 12 11 10 9 9 10 11 14 15 16 15 12 10 10 11 10 12 12 12 13 13 15 15 15 15 15 14 14 14 15 16 15 15 16 17 17 17 17 17 17 17 17 17 17 16 16 16 15 15 14 14 15
4 6 6 6 6 4 2 1 1 3 4 2 4 5 4 3 2 5 7 6 6 4 4 6 5 4 1 1 5 8 9 9 8 5 7 14 16 17 22 23 21 19 18 15 13 11 10 10 9 10 10 12 14 15 15 13 11 11 10 11 12 12 12 12 12 13 14 14 15 15 15 14 14 14 15 16 15 15 16 17 18 17 16 17 17 17 17 16 16 16 16 15 15 15 14 14 15
3 5 9 7 5 4 2 0 1 5 2 4 4 3 4 4 5 9 9 9 8 6 6 5 3 3 3 2 4 6 6 7 9 9 9 15 14 16 22 20 19 18 17 16 13 11 11 10 10 10 11 12 14 15 13 12 11 12 10 10 12 11 11 12 12 13 13 14 15 14 14 14 14 15 15 15 15 15 14 15 17 17 16 16 16 16 16 16 16 16 16 15 15 14 14 14 14
2 3 7 5 3 3 2 1 3 5 1 3 4 4 4 6 9 10 9 8 7 5 4 2 2 2 4 5 5 6 7 6 8 8 7 14 15 19 24 21 19 17 16 16 13 12 11 10 11 11 10 11 14 14 12 12 12 12 10 10 12 11 11 12 12 13 13 14 14 14 14 14 14 15 15 15 15 14 13 15 16 16 16 16 16 16 16 16 16 15 15 15 14 14 14 13 13
4 3 5 4 1 1 2 2 3 2 2 0 4 4 5 9 10 9 8 7 6 4 2 1 2 1 2 5 4 3 4 5 8 9 9 17 21 21 22 21 19 17 15 14 14 12 11 10 11 10 10 11 13 13 12 13 13 12 10 10 12 11 10 11 11 12 13 13 14 14 14 15 15 15 15 15 15 14 14 15 15 15 15 15 15 15 15 15 15 15 15 14 14 14 13 13 13
7 5 4 3 0 1 1 2 4 1 3 3 4 4 6 10 9 9 9 7 6 5 3 1 2 2 4 4 6 4 3 5 8 10 14 20 23 21 21 20 18 18 16 14 14 12 12 11 11 10 9 11 12 12 12 13 13 13 12 11 12 12 11 11 11 12 12 13 14 15 15 14 14 14 15 15 14 14 15 14 14 14 14 14 15 15 14 14 14 14 14 14 13 13 13 13 12
8 4 2 2 1 0 1 5 3 3 3 5 4 4 8 10 8 9 8 6 5 4 2 2 1 2 4 3 5 6 7 7 9 13 17 21 24 21 19 18 18 17 15 15 13 13 12 11 11 10 9 11 11 12 12 12 13 14 13 13 11 11 12 12 11 11 12 13 14 15 14 13 14 14 14 14 14 14 14 13 13 13 13 14 14 15 14 14 13 13 13 12 13 13 13 12 12
6 2 0 1 1 1 2 5 1 4 1 3 5 4 9 9 7 8 6 5 3 4 2 1 1 1 2 3 4 4 9 13 15 18 19 20 23 20 17 17 18 17 15 14 13 13 12 11 10 10 10 11 10 11 11 12 13 13 13 12 11 10 11 11 11 11 12 13 13 14 13 13 13 12 12 13 13 14 14 13 13 13 13 14 14 14 13 13 13 12 12 11 12 12 11 11 11
5 0 1 1 2 2 3 5 2 5 3 3 4 4 7 8 6 7 6 5 4 5 5 3 2 1 3 7 7 5 8 15 20 19 18 18 20 18 16 17 18 17 15 14 14 14 12 10 10 10 11 11 11 10 11 12 13 14 13 12 11 11 10 10 9 9 10 12 12 13 12 13 12 11 12 12 12 13 13 13 12 12 11 11 12 12 12 12 11 11 10 10 11 11 10 10 10
3 2 1 1 3 2 4 3 3 5 5 5 4 5 5 5 5 7 6 6 6 5 5 3 2 1 3 8 6 5 7 13 19 17 17 17 17 16 15 16 17 17 15 14 15 14 13 11 10 10 11 11 11 10 11 12 13 14 12 11 11 11 11 9 9 9 9 9 11 12 12 12 12 11 11 12 11 11 11 12 11 9 9 9 10 11 11 11 10 10 10 10 10 10 9 9 9
1 1 1 1 3 3 4 2 4 4 5 5 5 4 3 3 4 5 6 6 6 6 5 2 2 2 4 6 3 6 11 14 18 18 18 17 16 16 16 17 16 14 14 15 15 14 13 12 10 10 10 11 11 10 11 12 12 14 12 10 11 10 10 9 9 9 7 7 9 11 11 11 11 11 10 10 10 11 11 11 10 9 9 10 11 11 10 10 10 10 10 10 9 8 7 7 8
2 2 2 2 4 3 3 3 6 5 6 5 5 3 1 2 3 5 7 6 5 6 5 3 2 1 4 5 2 8 12 14 18 18 18 17 15 15 15 17 16 12 13 14 14 14 13 12 11 10 10 10 10 10 11 11 12 13 11 10 11 10 9 9 8 7 6 6 8 10 10 9 10 11 10 10 8 9 11 11 10 9 9 9 9 9 8 8 9 9 9 9 8 7 6 7 7
2 2 2 3 4 2 4 2 6 5 4 4 5 3 2 3 4 4 6 6 5 6 5 3 2 1 3 5 4 8 10 15 19 18 17 17 16 14 14 15 15 13 13 14 14 13 13 12 11 10 10 10 10 10 9 10 11 11 10 10 10 9 10 10 8 7 6 7 8 7 7 8 8 10 10 10 8 8 10 11 10 9 10 10 9 8 8 8 8 8 8 8 8 7 6 6 7
1 2 2 3 3 1 3 2 5 5 3 4 6 4 3 1 1 3 5 6 4 4 4 4 1 1 4 4 4 4 9 18 20 19 17 15 16 15 15 15 14 13 13 15 14 13 13 11 11 11 10 10 10 9 9 8 9 10 9 10 9 9 9 9 8 6 6 7 7 5 6 7 7 8 9 8 8 8 10 10 9 9 9 8 7 6 7 7 8 8 7 7 6 6 5 5 6
1 3 1 2 2 1 2 1 5 5 3 5 6 5 4 2 3 5 5 4 5 3 3 4 3 2 3 2 4 7 13 22 21 19 17 14 14 15 16 14 12 12 12 13 13 13 13 11 11 11 10 9 9 9 8 7 7 9 8 8 8 8 9 7 6 5 4 5 5 5 5 6 6 8 8 7 7 7 9 9 7 7 7 6 5 3 5 7 7 8 7 6 6 5 6 6 5
1 2 1 2 2 2 1 2 3 3 4 5 7 6 6 2 3 4 3 2 5 2 1 3 2 2 4 4 9 16 20 23 21 19 17 15 14 14 16 14 12 11 11 12 12 13 14 12 10 10 10 9 8 7 7 7 6 7 8 7 7 7 8 7 6 4 4 3 4 4 5 7 7 7 9 7 6 6 8 8 6 5 5 4 4 3 5 7 7 8 8 7 6 6 6 5 4
1 1 1 3 3 4 4 3 2 4 5 5 7 6 6 3 2 2 2 0 5 3 2 4 4 5 7 9 17 24 23 23 21 19 17 16 15 14 15 14 12 11 11 11 12 12 13 13 11 11 11 10 9 6 5 6 6 6 7 7 7 7 7 7 5 4 3 3 4 6 7 7 7 7 6 6 6 5 6 6 5 4 3 2 2 5 6 7 7 8 8 8 7 7 7 6 5
1 1 2 4 4 4 4 4 3 6 7 5 7 7 6 6 2 2 2 1 5 6 5 6 8 9 10 15 21 24 23 23 21 19 17 16 14 14 14 14 15 12 11 11 11 12 12 12 12 13 13 12 12 8 5 5 5 6 6 6 7 7 7 7 6 4 3 4 6 7 7 6 5 5 2 4 6 6 5 4 4 4 3 2 2 4 6 7 7 7 8 7 9 9 8 7 7
2 2 2 4 2 1 3 6 5 4 8 7 7 6 3 7 6 3 3 4 6 6 5 6 8 7 9 15 20 21 22 23 22 20 18 16 15 14 13 14 16 15 14 13 12 13 13 12 12 14 14 13 13 11 7 4 5 5 4 5 6 6 6 6 5 4 3 4 7 9 6 3 2 2 2 2 5 5 6 5 3 3 1 1 2 2 4 6 6 6 6 7 9 9 8 6 6
2 3 2 3 3 5 6 8 6 4 8 9 7 3 3 6 6 3 3 6 6 5 7 7 7 8 8 12 17 20 19 20 21 20 19 17 16 17 15 15 15 17 16 15 14 13 14 13 13 13 14 14 13 12 9 4 4 5 4 2 2 3 5 6 4 4 4 3 6 8 4 5 5 5 3 3 3 3 4 5 3 2 1 1 1 1 2 4 4 4 4 5 7 7 6 4 3
2 3 2 2 4 5 6 6 6 5 4 7 7 4 4 5 4 3 4 6 5 4 7 8 9 12 11 11 15 18 18 18 19 19 19 17 16 17 17 17 16 16 17 16 15 15 15 14 14 13 14 14 12 11 11 7 5 6 6 4 2 2 2 5 5 5 5 6 5 7 4 7 5 5 3 3 3 1 1 3 3 1 1 1 1 1 1 1 1 2 3 4 5 4 3 1 2
1 2 1 4 3 5 3 5 5 5 2 7 8 6 5 4 3 4 4 2 2 1 2 2 7 15 14 13 15 15 16 15 17 17 18 18 17 17 16 17 17 16 17 17 17 17 16 15 14 14 14 14 13 11 11 11 8 8 9 7 5 5 4 3 4 5 5 7 6 6 6 6 5 5 3 4 4 1 2 1 1 1 1 0 2 1 0 1 1 0 1 2 3 1 2 4 5
1 2 2 5 5 5 4 4 3 5 3 7 5 5 6 4 4 3 2 3 4 2 4 6 8 16 16 16 15 13 13 14 16 17 19 20 19 17 16 17 18 18 19 18 18 17 17 16 14 14 15 14 14 12 10 11 11 9 10 9 7 7 6 4 4 5 4 6 6 7 6 5 6 5 4 4 6 4 4 1 1 1 4 4 1 2 3 5 2 1 2 1 1 4 7 6 6
4 2 4 3 5 6 4 4 1 3 4 4 3 4 5 5 4 1 1 5 7 4 5 7 10 18 18 14 12 12 14 15 16 18 18 19 20 18 16 17 17 17 18 18 17 17 18 17 15 15 15 15 15 15 12 11 12 11 10 9 9 7 7 7 5 5 5 6 6 7 6 4 5 6 6 4 7 7 5 3 3 5 7 5 3 3 6 8 4 3 4 5 6 7 7 6 6
6 3 6 3 5 6 5 5 3 3 4 3 3 3 3 3 2 1 2 7 8 6 6 7 8 13 14 11 10 11 12 15 17 17 18 18 18 18 16 16 17 18 18 18 17 16 17 18 17 16 16 16 16 16 14 12 12 12 12 11 11 10 9 9 7 6 7 7 7 7 8 7 5 6 7 6 5 7 6 7 7 7 7 5 6 5 7 8 5 5 6 7 8 6 7 7 7
5 5 7 5 6 5 5 5 4 4 2 2 3 4 4 3 1 2 3 7 8 6 7 6 6 7 8 9 10 10 10 13 16 17 18 17 18 18 17 16 16 19 18 17 17 17 17 18 18 18 17 17 16 16 16 14 13 13 13 12 12 12 11 10 9 8 8 7 7 8 9 10 8 6 7 7 6 7 8 9 9 9 8 8 9 8 8 8 6 6 7 8 8 7 8 8 9
5 7 7 7 7 4 4 5 4 4 3 1 3 5 4 1 1 1 2 6 7 7 6 5 6 6 6 7 8 10 11 13 17 17 17 17 17 19 19 18 16 17 19 18 18 18 17 19 19 18 18 18 17 16 16 15 15 14 13 13 12 12 11 10 10 11 10 8 7 8 9 10 11 9 7 8 7 8 9 10 9 9 9 9 10 9 8 8 7 7 8 9 8 9 9 8 10
9 9 8 6 6 5 3 5 5 3 3 2 2 4 5 2 1 3 5 6 6 7 7 6 6 6 7 7 7 9 10 13 17 17 16 17 17 19 20 21 20 17 19 20 20 19 18 19 20 20 18 18 18 17 16 16 15 15 14 13 12 12 11 11 12 12 12 12 9 8 10 11 12 12 9 8 9 9 9 9 9 9 9 10 10 10 9 9 9 9 10 11 10 10 11 10 12
8 8 7 4 5 4 3 5 5 2 2 2 1 2 3 5 4 4 7 6 6 7 7 7 6 6 7 7 7 6 9 14 17 16 17 19 19 20 21 22 23 20 19 20 20 20 20 20 20 21 20 19 19 18 17 17 16 15 15 15 14 12 13 13 13 12 12 13 13 11 10 11 11 12 11 10 11 11 9 9 10 10 10 10 11 11 11 11 11 11 12 13 13 12 13 14 14
5 6 6 5 4 3 4 5 4 2 1 1 2 0 5 7 6 6 7 6 6 6 6 7 6 6 6 6 7 6 8 12 15 17 18 20 20 20 20 21 23 22 20 19 20 21 21 20 20 20 21 20 21 20 18 18 17 16 16 16 15 14 14 14 13 14 14 13 13 13 13 13 12 11 11 10 11 12 11 11 12 12 11 11 12 13 13 13 13 13 13 14 14 14 15 15 16
5 5 4 4 3 3 4 4 5 4 0 2 3 2 4 4 6 5 5 6 7 7 7 7 6 6 6 6 7 6 8 11 15 17 18 19 20 20 20 21 23 23 21 20 21 22 21 21 21 21 21 22 22 22 20 18 17 17 17 16 16 15 15 14 13 13 14 14 13 13 14 15 13 10 10 10 11 12 11 11 12 13 13 12 13 15 15 15 14 14 14 15 15 16 16 16 17
4 5 4 4 4 3 2 1 5 3 1 4 3 2 2 4 5 4 4 4 5 7 7 8 7 7 7 6 6 6 7 11 15 16 17 18 19 20 21 21 23 24 23 22 21 22 22 22 21 21 22 23 23 23 22 20 18 17 17 17 15 16 16 16 15 14 14 14 14 14 14 14 13 12 11 12 12 12 12 12 13 13 14 14 15 17 17 17 16 16 16 16 16 17 18 18 18
4 4 4 5 5 4 2 1 2 1 2 4 4 3 1 3 4 4 4 4 5 6 6 7 8 8 8 6 6 6 6 9 11 15 17 18 18 19 20 21 23 24 24 23 22 23 24 23 22 22 22 23 23 22 21 21 20 18 18 17 16 16 16 16 16 16 15 15 15 14 15 16 15 14 14 15 15 15 15 14 14 14 14 16 17 18 19 19 19 19 19 19 19 19 19 19 19
4 3 3 5 6 5 4 1 2 3 2 4 5 4 2 4 6 5 5 6 6 6 6 7 7 7 7 7 7 7 7 7 8 14 18 20 20 18 19 21 21 23 23 22 23 24 24 23 24 24 22 22 23 22 21 20 20 19 17 17 17 16 16 17 17 17 17 16 16 16 17 18 18 16 15 14 15 16 17 17 17 16 16 18 19 20 21 21 21 21 22 22 21 21 21 21 21
4 4 3 3 6 5 4 2 2 5 2 2 6 6 6 4 7 6 7 7 7 7 7 6 6 7 7 7 7 7 7 7 9 16 20 20 21 20 19 20 20 22 23 22 21 22 23 23 24 24 22 21 22 22 21 19 19 18 17 16 16 17 17 17 17 18 17 17 18 18 18 19 19 17 14 14 14 13 14 16 17 17 19 20 21 21 22 22 22 22 23 23 22 22 22 22 22
8 7 5 4 5 2 3 3 1 3 2 3 6 6 7 6 6 8 8 8 8 7 6 5 5 6 6 7 6 7 8 6 8 17 22 21 21 21 19 19 20 21 22 22 21 21 23 23 22 24 23 21 21 21 21 20 19 18 18 17 17 17 17 18 18 19 19 19 19 18 18 19 19 17 16 16 16 15 14 15 17 17 18 21 22 22 23 23 23 22 22 23 23 23 23 23 22
9 9 6 5 6 2 2 2 1 1 3 6 7 6 7 7 7 7 9 9 7 7 7 6 6 5 5 6 7 7 7 5 8 13 18 19 19 20 19 19 21 21 20 21 22 22 23 23 23 23 24 23 21 22 22 21 21 20 19 19 19 17 17 17 18 19 20 21 21 20 20 20 20 19 19 18 18 19 17 17 18 18 19 20 22 22 23 24 23 22 22 22 22 23 23 23 21
8 9 7 6 5 3 2 2 1 1 1 4 7 7 8 6 7 5 8 9 8 8 8 7 7 7 7 7 8 7 5 4 7 10 12 15 16 18 18 19 20 21 21 22 22 23 23 23 23 23 23 24 23 22 22 22 21 21 19 19 18 17 16 17 17 18 19 19 19 21 21 21 21 21 22 21 19 19 19 20 21 20 21 22 22 22 22 22 22 22 21 21 21 22 23 21 20
5 7 6 6 4 5 4 2 2 1 1 1 1 3 6 6 6 7 6 8 8 8 7 6 6 7 6 6 6 7 7 5 5 6 9 12 13 15 17 18 19 20 21 21 22 22 23 22 22 22 22 23 24 23 22 21 20 19 17 16 15 15 15 15 14 14 15 16 16 17 18 19 19 20 21 20 19 19 20 23 22 21 23 22 22 23 23 22 22 22 22 22 22 21 21 21 21
2 4 5 5 5 5 1 2 2 0 1 1 3 2 5 5 6 7 6 4 4 5 4 4 4 3 3 4 4 4 6 6 5 6 8 11 12 13 15 17 18 18 18 19 21 21 22 23 22 22 21 22 23 23 22 21 19 17 16 14 13 13 13 13 13 12 12 13 13 14 14 14 15 16 17 18 19 21 21 22 22 24 25 23 23 25 25 25 24 24 23 23 23 22 21 22 22
1 1 3 5 6 4 3 5 5 1 0 1 2 4 5 6 8 8 3 2 3 5 4 2 1 1 2 2 1 2 3 4 3 4 7 10 12 13 14 14 16 17 17 17 19 20 20 22 22 21 21 21 21 22 22 20 18 18 17 16 15 13 14 13 13 13 13 12 13 13 13 13 13 14 16 16 17 19 20 20 21 24 25 24 24 25 26 27 26 24 23 23 24 24 23 23 22
0 1 1 5 7 7 8 8 5 3 2 3 2 1 5 6 9 8 3 2 3 4 4 4 3 2 3 2 3 4 4 4 2 1 4 7 9 10 11 11 13 15 16 15 16 18 18 19 21 21 20 20 20 21 23 22 21 19 18 19 18 16 15 13 13 12 12 11 12 11 11 12 12 13 14 15 15 15 16 16 18 20 22 22 23 24 26 25 24 22 22 23 24 25 25 24 24
3 2 2 6 10 9 10 9 5 3 3 2 2 3 4 4 4 6 6 5 5 4 4 6 6 5 5 5 4 5 5 4 3 2 3 4 6 8 9 10 11 12 14 15 15 16 16 16 19 20 20 20 20 20 22 24 23 21 19 18 18 17 15 13 11 11 11 11 10 9 8 9 10 11 12 13 14 14 14 14 14 16 17 18 19 21 23 23 23 23 24 25 25 26 26 25 24
2 3 3 7 11 8 9 8 4 2 2 2 2 2 1 5 4 3 8 8 6 5 6 6 6 6 5 5 5 5 5 5 5 5 4 5 5 7 9 8 8 10 13 15 16 16 15 16 17 19 19 19 19 18 20 22 23 22 19 17 16 15 13 11 8 8 9 10 9 8 8 8 7 8 10 11 12 14 14 13 14 15 16 16 18 19 20 21 23 25 26 25 25 25 25 25 25
2 5 2 5 9 7 7 6 3 1 3 1 3 1 1 5 5 1 5 6 6 7 8 7 7 6 6 6 5 5 5 4 4 5 6 6 6 7 8 8 7 8 10 12 15 17 15 16 17 17 17 18 19 18 19 20 20 19 18 15 14 13 12 11 9 7 7 8 9 8 9 10 10 9 9 11 12 14 14 14 15 16 17 17 17 18 18 19 20 21 22 21 22 24 25 26 28
3 5 1 6 6 5 4 5 4 3 2 2 5 3 1 4 4 3 3 3 7 7 7 7 7 6 6 6 6 6 5 4 5 6 7 8 7 7 8 8 7 8 8 9 12 15 15 15 16 16 15 16 18 17 17 18 16 14 14 13 12 12 11 11 10 8 7 7 8 8 9 10 11 9 9 10 12 14 14 16 16 17 18 17 17 17 18 19 19 19 19 19 20 22 25 26 27
5 3 5 7 6 5 4 3 5 4 1 3 3 0 2 3 5 4 4 3 5 6 6 6 6 6 6 6 6 6 6 5 5 6 7 9 9 9 9 10 9 10 10 11 13 14 15 16 17 17 14 13 16 15 14 15 14 12 12 12 11 11 11 9 8 6 6 5 5 5 5 5 6 6 7 9 10 10 11 12 14 15 16 17 17 18 18 19 19 19 19 19 19 20 22 23 24
5 4 5 5 4 5 5 3 3 2 3 3 3 4 1 3 5 2 3 3 1 4 8 8 7 7 6 5 5 6 6 6 6 5 6 8 9 10 11 12 12 12 11 12 14 15 16 18 19 19 17 15 16 15 14 14 14 13 12 12 12 11 10 8 6 6 5 4 3 3 3 3 4 4 5 6 7 8 8 9 10 11 11 13 14 15 16 17 16 17 17 17 18 18 19 19 21
2 5 6 5 2 1 1 1 1 2 3 3 2 3 1 4 6 5 5 3 2 3 7 9 8 8 6 6 6 5 5 6 5 5 5 6 8 10 11 12 12 13 13 13 14 15 16 16 18 18 18 18 18 16 15 15 14 14 14 13 13 12 11 10 8 7 5 4 3 3 3 3 3 3 4 5 5 6 7 7 8 9 10 12 13 13 14 15 15 17 17 18 18 18 18 19 20
3 6 5 5 4 2 2 3 2 2 3 3 4 2 2 3 5 6 3 4 4 5 7 8 8 8 7 7 6 5 6 6 5 5 5 5 7 10 11 12 13 13 13 14 14 15 15 15 15 16 16 17 17 16 16 15 14 14 14 13 12 11 10 8 6 4 3 3 2 1 1 1 2 3 3 4 6 8 8 9 10 11 12 13 13 13 14 14 14 15 16 17 18 18 19 19 20
3 4 4 5 4 4 4 4 3 3 1 2 3 1 3 3 2 1 2 5 6 7 7 7 7 7 6 6 6 6 6 5 5 6 5 6 9 11 11 12 13 13 13 14 14 15 16 16 16 17 16 14 14 14 14 13 12 10 10 10 8 7 7 5 5 3 3 3 2 1 2 1 2 2 3 5 7 8 8 8 8 9 10 10 11 12 12 12 13 14 14 15 16 16 17 18 19
3 2 3 2 3 4 3 2 4 5 2 0 2 2 4 3 1 2 4 6 6 6 6 7 7 6 6 6 6 6 6 5 6 6 5 7 10 11 11 12 12 13 14 14 14 14 16 17 17 18 17 16 15 14 14 13 12 11 11 10 9 9 9 7 5 4 4 4 4 4 4 3 2 3 4 5 7 8 9 9 10 10 9 9 9 9 9 11 12 13 14 15 16 16 16 18 19
1 2 3 4 3 6 5 1 0 3 2 2 3 2 4 1 0 2 4 5 4 4 4 6 6 6 6 6 5 6 6 5 6 5 5 7 10 11 11 12 12 13 14 14 14 15 15 16 18 18 18 17 17 16 15 14 14 13 12 12 11 10 10 9 7 6 6 6 6 6 5 5 5 6 6 7 8 9 10 11 11 11 11 11 11 10 10 10 10 11 12 14 15 15 17 18 18
3 3 5 3 2 3 3 1 2 2 1 2 3 4 4 1 2 2 4 5 4 6 6 6 6 6 6 6 6 6 6 6 6 6 7 8 10 11 11 12 13 13 13 14 14 15 15 16 17 18 18 17 17 17 16 15 15 15 15 14 13 12 11 10 10 9 8 8 8 8 7 8 8 8 9 9 10 11 12 12 13 13 13 12 12 13 13 13 13 13 13 13 14 15 17 18 19
3 2 2 2 1 1 1 3 1 2 3 2 3 5 4 4 4 4 6 8 8 7 7 7 8 7 6 6 6 6 6 6 6 5 5 7 10 11 12 13 13 13 14 14 14 15 16 16 17 18 18 18 17 17 17 17 16 16 16 15 15 14 13 12 12 12 11 11 11 11 11 11 11 12 12 12 13 13 14 14 14 14 14 14 14 15 15 15 15 15 15 15 15 16 18 19 20
1 0 1 2 2 2 3 3 3 3 3 3 2 1 3 6 6 8 11 11 10 10 8 8 9 8 7 7 7 6 6 6 6 6 5 7 10 11 11 12 13 14 14 15 16 16 17 17 18 19 19 19 19 18 18 18 17 17 17 17 16 15 15 15 15 14 14 14 14 13 12 13 13 13 13 13 14 14 15 15 15 15 16 16 16 17 17 17 17 17 17 17 17 18 19 20 21
2 2 2 2 1 2 1 2 2 4 3 3 2 2 5 6 3 7 12 12 11 12 10 9 8 8 7 7 7 7 6 6 6 6 5 8 11 11 11 12 13 14 14 15 16 17 17 18 18 19 20 20 20 19 19 19 19 18 18 18 18 17 17 16 16 15 15 16 15 14 14 14 14 14 14 14 15 15 16 16 16 16 16 16 17 17 17 17 18 18 18 18 19 20 21 22 23
4 3 5 5 3 4 2 2 1 2 2 3 3 3 6 4 2 1 4 7 9 12 11 9 8 9 8 8 8 7 7 6 6 6 6 9 11 12 12 12 13 14 15 15 16 17 17 18 18 19 20 21 20 20 20 20 20 20 20 19 19 18 17 16 16 16 16 16 15 15 15 15 15 15 15 15 15 15 15 16 15 15 15 15 16 16 17 17 18 19 19 20 20 21 22 23 23
Wind_Direction
21 8 1 336 291 284 276 238 260 247 217 235 127 110 76 78 103 114 109 127 94 58 49 58 47 42 21 25 94 83 39 32 29 29 104 136 139 133 135 134 133 130 131 131 122 114 106 97 85 84 88 107 117 114 107 97 93 88 80 79 76 79 84 86 88 87 86 84 82 83 83 81 79 76 78 80 78 75 76 78 78 76 76 75 75 74 71 69 68 68 69 70 71 72 75 81 85
13 347 303 280 270 272 303 189 257 257 201 146 72 75 100 109 127 113 100 91 83 83 71 65 55 51 49 47 114 87 52 54 69 77 104 131 131 127 136 137 135 134 132 126 118 115 107 97 88 89 91 109 121 117 106 96 99 93 78 74 77 76 81 88 87 85 86 85 80 81 85 87 86 83 82 83 79 77 79 80 78 76 76 76 76 75 72 70 68 68 70 71 71 73 74 80 88
22 340 286 273 260 234 277 257 230 265 213 116 78 99 133 119 86 81 83 83 86 93 76 73 82 31 360 37 69 70 76 74 87 93 117 140 132 129 136 132 132 133 131 125 122 123 111 97 93 94 97 113 122 117 106 98 101 98 90 77 76 78 80 85 85 85 83 80 76 77 85 89 90 87 85 83 82 83 82 80 78 77 78 77 76 76 73 70 70 70 72 73 73 74 75 80 91
358 341 296 299 272 231 261 232 235 282 348 110 111 146 146 105 92 83 85 89 89 101 101 115 110 26 6 33 54 77 94 83 99 110 139 147 134 133 135 128 127 126 129 127 125 126 111 97 95 95 100 117 123 119 108 101 103 102 98 81 77 81 82 83 84 85 81 76 74 78 86 90 90 88 88 87 85 84 82 80 78 79 82 81 78 76 73 72 72 73 75 76 75 76 76 82 92
323 297 295 316 317 278 286 266 266 313 9 67 115 147 135 102 104 100 94 88 85 86 97 138 85 95 62 28 30 76 102 107 116 108 111 128 130 135 134 129 125 124 130 129 128 125 110 101 95 95 101 120 128 122 111 103 102 99 94 78 77 83 83 83 82 83 80 75 74 81 90 92 91 88 88 88 86 85 85 83 78 80 82 82 81 77 75 75 75 76 78 78 78 78 77 82 89
312 274 271 291 185 359 303 269 258 95 15 343 100 131 111 102 110 106 98 89 85 70 14 53 86 88 99 55 51 52 61 122 127 104 110 125 132 136 135 132 125 126 134 131 130 126 115 106 98 98 103 121 131 124 114 111 108 101 94 80 77 81 82 83 83 84 78 73 76 84 92 92 91 89 89 89 87 87 87 86 85 85 82 81 81 78 77 77 76 78 79 80 80 79 78 81 87
305 280 244 256 222 171 259 260 251 100 7 355 75 112 98 103 114 112 116 110 97 92 17 32 92 68 117 122 77 50 34 94 119 112 124 132 134 135 136 133 127 133 140 135 132 130 122 108 102 104 108 119 129 128 123 121 118 110 100 91 86 81 77 80 83 86 83 80 83 88 92 94 93 91 91 90 88 90 90 89 89 83 79 80 81 81 80 80 79 80 80 80 80 80 80 82 88
285 298 55 286 256 198 250 265 292 85 26 10 39 62 98 114 126 125 134 133 132 134 124 102 107 24 140 134 98 73 54 84 101 114 129 130 133 136 135 133 130 136 141 139 137 133 124 110 109 111 113 119 122 128 133 129 123 114 102 98 99 91 81 84 86 86 90 89 89 93 96 98 95 92 93 93 92 94 92 89 85 80 80 82 84 86 84 82 83 83 82 83 83 82 80 82 90
242 211 28 12 257 206 248 263 97 95 112 97 62 52 96 123 133 128 124 115 129 131 130 147 108 62 120 99 97 104 75 92 105 119 131 127 133 136 134 136 135 140 142 141 140 136 129 120 117 119 117 118 119 125 136 135 128 120 107 102 103 101 95 91 88 80 89 95 93 95 100 102 96 94 96 95 96 97 94 89 88 93 95 92 88 88 86 83 85 85 83 85 86 85 83 81 88
220 130 338 301 270 221 236 252 92 97 93 92 104 97 96 125 140 132 124 114 125 117 104 104 97 97 110 102 103 112 110 112 113 124 132 129 135 138 134 134 138 144 143 139 141 142 137 130 123 123 119 115 119 124 134 135 132 128 115 107 105 106 105 98 94 83 85 97 99 100 105 108 99 96 101 99 99 101 100 94 93 103 100 90 85 84 85 85 86 87 87 87 87 86 85 80 84
224 160 220 282 264 232 230 177 105 111 103 90 93 103 102 122 143 128 116 113 122 113 116 150 120 149 116 101 90 113 131 128 121 131 136 135 140 139 134 132 138 145 143 142 145 146 140 134 127 124 121 116 117 120 133 138 137 134 123 115 115 113 111 105 103 103 102 99 102 108 110 114 105 98 105 108 105 103 102 95 90 95 96 92 89 86 86 88 90 90 92 91 89 85 82 80 81
216 205 162 254 251 243 265 132 119 116 116 123 108 111 139 131 148 132 119 116 131 122 137 176 97 157 133 99 98 129 142 139 129 137 142 142 142 137 135 136 139 143 143 142 144 147 144 140 131 125 127 122 116 117 130 138 141 142 134 130 133 128 122 117 113 114 115 104 109 116 112 118 115 107 110 112 111 110 107 100 94 93 92 91 91 89 88 90 95 95 97 94 89 85 80 82 82
205 219 158 241 260 291 312 85 112 117 132 145 127 141 177 166 159 134 123 125 144 132 117 125 103 359 101 91 116 139 151 146 135 141 146 144 144 141 139 139 141 144 140 139 144 147 147 145 136 128 132 130 123 119 124 133 138 143 141 143 146 140 134 130 129 122 114 113 118 119 108 114 128 125 121 116 111 116 118 110 106 107 101 100 96 92 91 92 98 98 97 96 90 90 87 87 85
240 258 176 234 259 283 316 75 122 135 139 118 114 147 169 175 120 83 108 119 105 110 88 77 95 38 99 115 139 154 154 143 138 144 148 144 146 147 143 141 142 145 142 146 150 147 147 150 143 134 134 136 133 127 125 128 129 133 139 148 148 144 146 140 139 133 116 118 120 112 95 101 129 137 131 127 121 122 131 124 114 116 119 121 113 95 89 89 95 97 97 100 97 95 94 90 83
239 300 328 271 272 210 332 99 167 153 124 120 130 152 136 21 358 41 57 85 75 101 105 65 18 16 102 130 152 160 148 141 140 145 148 145 146 144 140 143 146 147 148 151 152 148 150 154 151 142 138 136 138 137 132 130 130 132 136 146 149 148 157 152 146 145 124 119 114 98 82 90 117 140 140 140 137 133 140 140 127 122 125 131 131 103 92 93 96 99 97 97 93 90 89 85 79
181 322 340 283 271 188 212 204 201 146 121 133 139 145 123 57 354 45 18 58 97 125 127 88 32 34 61 56 124 142 145 141 142 147 147 146 148 139 136 142 148 151 153 154 153 151 153 159 157 146 141 132 133 140 138 140 141 141 140 143 147 151 163 164 153 148 138 121 104 89 81 92 108 142 153 155 153 139 140 145 145 143 139 133 133 121 107 105 101 100 96 91 87 84 83 80 76
77 344 227 252 248 194 195 185 186 128 122 130 141 154 130 113 10 88 237 332 113 136 81 83 71 66 75 88 122 135 142 143 143 150 148 151 156 140 134 143 152 158 161 161 162 159 159 164 161 150 150 141 141 155 152 150 155 155 150 145 144 149 162 172 166 153 153 132 105 92 84 77 88 126 153 166 174 159 146 147 147 159 164 157 142 129 120 113 106 102 96 90 86 79 75 67 55
97 174 212 227 228 203 190 138 112 124 132 141 153 173 140 134 154 126 171 104 114 134 107 91 77 72 92 109 125 133 141 145 148 152 150 158 157 141 144 156 161 167 171 172 170 168 169 171 164 156 158 154 153 170 179 163 172 174 163 157 154 151 156 166 172 166 158 133 113 103 94 60 60 110 139 169 185 190 179 172 163 171 176 184 177 138 123 116 107 100 97 91 82 71 65 53 33
154 204 226 238 233 61 74 83 65 105 138 143 155 188 151 141 155 142 165 143 139 141 132 125 103 93 105 117 129 136 144 151 156 156 157 165 157 151 163 168 167 168 176 183 177 174 176 175 170 163 164 164 160 169 188 185 176 182 178 171 166 161 161 160 161 158 144 131 119 111 118 114 107 179 209 171 187 204 201 205 194 190 198 175 171 142 118 113 109 105 105 100 87 74 65 48 16
200 210 236 239 138 62 45 71 52 60 127 137 144 161 100 136 142 143 185 153 163 173 156 158 141 139 140 136 138 144 152 158 163 163 163 169 164 163 170 175 178 172 175 184 181 179 180 177 176 171 169 171 169 170 180 192 168 171 181 169 166 168 163 150 152 162 153 173 123 108 153 183 191 223 236 210 197 198 198 204 202 197 226 206 192 186 139 113 116 116 106 106 98 85 76 60 356
201 199 248 258 127 80 40 60 48 31 100 128 130 130 110 130 124 163 202 148 177 206 159 173 169 154 151 149 148 154 160 164 170 168 166 171 173 173 174 176 184 179 175 181 184 184 184 182 181 174 172 175 176 175 173 181 179 171 181 175 172 203 194 154 167 187 177 203 146 111 218 210 195 239 245 206 173 110 166 180 191 203 213 173 191 196 144 99 125 122 102 111 94 72 83 133 207
196 165 12 341 57 92 70 59 42 3 43 114 126 148 128 107 118 197 236 130 156 296 88 121 150 151 153 152 152 159 164 169 176 174 170 174 180 181 177 175 182 183 176 179 185 185 186 186 186 178 178 180 179 184 174 178 186 179 185 185 182 194 225 206 184 196 196 211 165 138 233 212 179 245 254 150 131 279 308 70 109 143 283 216 156 155 211 284 271 221 40 91 85 75 215 219 215
217 165 73 360 33 97 98 66 26 345 71 122 131 137 122 139 164 200 271 92 112 69 37 32 97 138 147 148 152 163 168 173 180 182 177 177 183 183 178 176 179 181 177 182 186 185 187 186 188 186 184 184 181 186 180 181 189 184 188 193 195 190 200 223 210 199 212 230 185 168 222 207 172 224 261 151 145 217 265 327 48 190 255 280 211 168 239 262 255 249 305 313 190 225 237 242 244
227 179 112 44 58 90 91 92 78 3 62 103 106 122 138 175 167 84 64 120 117 93 67 52 93 131 141 147 160 170 171 176 182 187 185 182 186 183 180 179 177 180 177 182 186 185 189 187 190 190 188 190 186 185 184 189 192 187 191 198 203 197 192 206 218 207 207 232 220 192 199 197 187 207 243 221 175 195 219 219 204 221 245 270 262 206 240 265 258 227 242 248 246 248 260 266 267
233 170 128 115 90 92 99 111 119 65 59 69 111 139 109 127 125 73 184 137 125 111 93 74 91 128 143 153 168 173 172 176 180 187 190 189 187 184 186 182 176 180 179 181 187 188 190 188 191 193 190 193 192 188 187 192 195 191 197 203 204 205 201 199 207 217 222 234 234 212 195 188 200 211 229 240 211 198 204 210 203 222 242 243 246 233 241 267 265 241 241 247 261 265 269 277 280
216 152 130 124 106 112 126 125 129 111 95 104 147 138 72 71 150 223 178 129 125 122 111 110 111 131 151 158 169 175 173 176 179 184 191 191 189 188 189 189 182 180 181 184 188 192 193 190 191 194 194 194 194 191 190 195 197 195 199 207 209 209 207 200 203 213 227 248 251 237 217 197 193 210 230 235 225 211 209 221 215 216 232 232 241 244 244 260 259 250 254 254 262 262 260 266 272
133 124 111 116 116 130 147 126 133 123 107 168 190 141 111 123 184 213 146 128 133 129 128 146 146 154 166 162 168 173 175 180 181 181 186 190 191 190 189 192 194 187 184 188 190 194 195 193 193 195 196 196 196 195 194 196 200 202 200 206 213 216 211 202 207 211 210 229 252 259 250 223 200 198 227 232 224 225 221 229 231 225 229 235 245 250 250 257 253 248 257 259 258 259 262 259 262
118 117 93 107 118 118 143 127 145 142 104 231 264 122 120 108 167 195 155 145 157 148 148 166 168 171 173 167 163 169 176 179 181 183 184 188 191 191 192 194 198 195 189 190 191 193 194 194 195 196 198 199 199 199 199 198 203 207 202 203 211 219 217 206 207 215 213 213 221 246 266 254 220 198 211 228 221 227 233 236 240 236 234 239 248 254 253 257 256 249 253 261 259 256 258 255 257
131 128 101 123 125 122 163 133 156 195 120 223 308 94 179 196 197 169 143 150 170 166 159 165 178 181 174 166 157 164 175 173 179 187 188 190 192 193 196 196 197 198 194 193 192 193 195 195 196 199 200 201 203 201 203 203 202 207 207 205 207 214 221 218 211 211 221 222 212 220 248 255 236 212 211 225 225 224 229 236 239 238 237 239 247 253 254 258 262 258 259 266 267 263 262 262 258
161 146 115 138 138 161 177 125 148 164 95 213 114 85 246 201 171 135 139 153 156 168 167 164 179 181 172 162 153 165 177 173 179 190 192 191 193 195 197 196 196 197 197 195 193 194 195 196 198 201 200 202 205 203 204 206 203 207 213 211 209 214 224 227 221 212 217 227 220 217 229 236 236 226 220 226 235 235 230 234 241 242 241 240 244 251 256 260 264 265 265 268 271 271 269 270 265
179 156 130 144 147 176 164 135 166 149 41 228 144 250 269 142 135 131 152 163 158 179 182 171 174 171 173 163 159 170 180 183 186 191 194 193 193 195 197 197 196 197 197 195 195 195 194 197 199 200 201 202 206 205 203 207 206 207 214 214 210 214 222 225 228 223 218 223 227 227 232 233 229 224 233 241 245 247 240 237 244 247 245 242 243 250 258 262 266 266 265 266 270 273 273 274 272
189 165 163 166 151 152 154 184 182 152 208 217 179 227 250 111 136 144 160 184 185 200 191 172 169 168 172 169 171 177 180 186 191 193 195 195 194 194 196 196 195 195 196 196 196 195 194 197 199 199 202 202 206 208 205 207 208 207 212 216 215 215 220 223 225 227 225 226 227 230 237 237 228 217 226 239 240 245 245 240 242 246 247 243 244 251 257 262 266 267 265 264 266 269 272 273 275
203 169 163 177 165 152 183 281 231 175 141 197 222 240 170 126 163 160 172 197 202 222 203 173 170 170 170 168 176 181 178 181 190 194 194 195 195 194 194 194 195 195 196 196 195 194 194 197 199 198 202 203 204 208 208 210 211 210 212 216 219 217 219 223 225 227 230 231 229 231 233 236 239 234 228 229 231 235 238 239 238 240 243 244 248 255 260 266 268 266 263 262 263 266 266 268 271
193 168 175 187 170 150 163 228 258 220 186 192 217 250 232 154 159 173 193 187 189 221 215 190 182 173 170 168 172 180 181 180 187 192 191 193 194 194 193 194 196 196 196 197 196 196 195 197 200 198 200 203 201 205 209 210 211 212 213 217 222 221 222 227 229 231 234 236 237 238 239 242 253 258 251 247 247 242 237 238 237 236 240 245 254 263 268 271 270 267 264 262 262 263 264 265 268
161 171 178 169 173 162 156 162 186 188 217 211 187 227 252 188 161 180 197 185 185 207 208 202 190 176 173 171 172 178 182 188 189 189 190 190 191 193 193 192 194 195 196 197 197 198 196 197 202 200 199 200 199 203 208 210 210 212 214 218 226 228 228 231 231 234 237 239 241 243 244 249 252 254 260 269 271 259 246 246 244 241 242 248 255 262 266 267 267 265 263 262 261 261 265 269 272
161 177 184 162 175 167 127 133 157 156 174 225 194 215 245 225 191 182 188 190 188 198 203 204 197 184 180 174 177 181 185 192 176 180 187 187 187 189 190 190 190 193 195 196 196 197 196 196 200 201 199 198 198 199 204 208 209 210 213 216 224 230 233 235 235 234 235 237 242 244 245 249 251 256 266 272 269 257 255 266 264 257 253 251 254 258 263 265 264 263 262 262 262 263 265 269 273
167 176 199 180 164 145 101 122 307 39 146 219 222 228 241 239 230 194 175 184 194 199 200 203 198 196 200 189 184 183 182 166 126 144 166 173 179 184 187 190 190 192 193 195 196 197 197 196 197 200 199 197 196 196 198 202 204 204 208 213 220 227 232 237 239 238 238 238 242 244 248 253 256 262 263 263 262 253 256 269 268 265 264 260 261 264 267 267 266 264 263 264 264 264 266 267 267
178 173 194 190 170 144 73 93 204 20 89 221 219 228 244 239 250 235 168 172 197 203 200 205 203 198 206 199 187 174 148 126 122 127 146 160 169 177 184 189 191 195 196 197 198 198 198 197 197 200 199 198 197 196 197 199 202 203 206 212 217 222 228 233 237 240 242 243 244 243 246 249 253 256 254 255 260 254 255 262 261 265 269 267 268 268 268 266 263 260 259 261 264 265 266 266 263
192 165 179 188 172 120 71 59 125 110 101 241 171 236 258 244 240 244 202 192 198 191 183 183 186 187 188 179 167 149 128 135 157 152 157 169 178 183 187 190 192 196 200 201 202 201 200 199 200 200 199 200 200 198 199 199 201 203 206 212 213 218 226 231 234 238 241 245 248 248 246 245 246 251 252 254 258 255 257 259 260 265 267 266 264 261 261 261 261 262 261 261 263 263 264 265 264
206 147 156 170 163 135 125 187 152 163 161 72 11 305 266 256 245 238 224 205 161 142 118 101 118 148 137 114 115 127 137 152 171 170 168 173 181 188 194 198 198 198 200 202 203 202 202 202 201 200 199 200 200 199 200 199 199 201 204 209 210 210 215 221 224 225 228 234 241 249 251 250 249 251 254 257 259 260 262 261 261 262 260 259 256 253 254 258 263 268 269 266 262 258 258 264 265
284 116 141 154 157 127 100 145 143 64 28 144 343 321 280 226 217 228 225 66 107 116 95 85 84 111 87 71 122 159 139 134 163 172 156 159 173 187 198 202 204 202 200 200 201 201 202 202 201 200 199 198 199 199 197 195 195 198 201 204 207 207 208 214 218 220 224 229 236 243 247 251 253 254 258 261 263 264 265 264 264 261 259 258 258 258 260 263 267 272 275 271 263 257 259 265 268
168 355 182 147 141 110 106 132 127 92 260 244 136 7 290 232 200 203 171 125 158 137 146 184 188 171 169 200 189 161 137 126 149 155 126 144 163 174 186 194 197 201 200 197 196 195 196 199 199 197 196 196 197 198 197 193 192 195 198 202 207 209 213 221 228 228 228 232 238 242 245 250 254 258 262 266 269 272 271 269 267 265 265 264 266 269 268 268 269 273 276 271 263 261 263 265 267
167 242 304 119 124 116 129 150 140 127 214 269 109 159 264 292 218 181 156 163 169 154 191 188 165 169 181 179 158 137 133 139 155 157 125 142 158 161 171 188 196 198 199 197 190 187 189 191 192 192 192 192 193 195 198 196 196 198 200 205 210 211 215 222 229 232 232 232 234 239 246 250 256 259 258 259 261 267 273 276 275 274 274 273 272 269 265 266 270 273 273 265 263 266 263 260 263
187 270 323 111 123 129 146 155 155 151 143 28 4 155 196 302 285 164 145 155 164 180 208 191 161 164 160 147 139 128 125 134 152 157 138 132 143 152 157 167 183 189 192 195 190 184 184 184 185 186 187 188 189 192 196 198 201 201 201 206 209 210 214 215 218 224 225 224 221 225 229 230 242 254 255 256 257 261 268 272 274 274 277 280 278 273 272 275 276 272 268 264 266 270 267 263 264
238 271 286 126 129 139 147 141 137 109 81 18 270 166 135 269 269 143 131 156 191 202 196 185 167 158 148 138 136 130 122 118 129 131 119 111 111 120 138 149 164 179 184 191 191 184 178 177 178 178 182 185 186 189 192 194 198 199 200 204 206 209 211 210 215 211 202 209 216 222 227 230 238 250 258 265 266 266 268 270 272 274 278 282 284 283 285 286 284 278 274 275 278 278 276 271 266
210 235 61 80 96 111 126 127 110 76 68 228 228 176 150 265 251 184 159 198 216 204 181 170 158 149 142 134 135 135 126 110 97 102 106 109 115 116 128 141 145 153 160 166 175 177 173 169 169 169 174 183 183 185 190 190 189 192 196 199 202 204 206 211 223 225 223 233 241 247 252 251 252 255 262 268 269 268 266 267 270 272 275 279 282 285 286 287 289 290 290 291 289 284 279 272 267
146 148 81 63 53 46 51 77 86 79 262 247 259 31 101 266 261 190 184 237 217 179 155 149 144 143 142 139 144 139 132 129 112 107 112 115 121 122 122 126 124 128 138 144 149 157 162 162 161 160 159 170 176 176 180 181 176 176 183 187 191 195 197 208 220 227 239 251 255 263 275 282 282 281 279 277 281 287 285 283 281 277 276 276 276 278 283 288 290 291 293 294 294 291 287 283 277
115 120 112 81 34 27 31 13 57 106 236 254 308 345 51 229 258 214 203 263 305 149 157 159 155 154 152 147 138 125 127 133 125 123 127 123 120 116 115 115 118 120 125 135 141 147 154 158 159 154 148 152 160 163 167 170 168 171 175 179 185 189 190 196 201 205 218 228 236 246 253 278 296 304 306 308 316 323 323 321 315 305 298 291 284 280 280 284 285 286 288 290 293 295 296 297 291
114 139 126 103 78 55 76 266 181 188 244 265 297 326 292 233 244 248 226 209 37 87 145 155 154 152 153 144 122 106 111 114 114 115 112 112 109 107 108 107 112 118 121 129 138 145 150 154 159 156 151 151 152 155 161 164 167 173 174 176 181 186 189 192 194 197 204 202 211 235 246 272 301 316 321 326 319 308 303 304 304 301 299 298 297 295 291 289 287 285 284 284 286 290 295 298 297
174 155 137 130 137 136 174 191 188 214 258 283 290 292 269 263 262 268 243 149 89 69 111 132 138 142 145 138 123 105 97 93 96 97 90 90 91 96 101 103 108 113 117 122 127 135 139 142 147 145 144 149 152 158 163 163 168 174 175 177 179 182 186 184 175 173 172 159 171 216 271 319 337 333 320 311 300 297 297 295 291 289 288 289 290 293 298 302 301 297 295 292 291 292 295 296 296
192 169 142 148 156 157 175 173 171 187 223 314 303 264 194 211 240 258 66 86 74 62 83 98 104 117 121 119 119 113 100 92 91 87 82 84 86 92 97 100 105 108 112 115 118 126 130 131 132 130 130 137 141 147 151 151 155 157 157 159 157 157 150 132 124 131 132 130 134 114 77 46 357 338 318 314 316 320 328 328 323 317 310 305 299 293 296 302 305 306 304 302 300 299 297 295 294
226 139 110 175 188 144 136 159 169 153 109 294 234 239 219 196 154 131 97 78 77 79 87 94 97 108 114 118 124 120 110 102 98 93 86 83 86 93 96 97 102 105 108 109 111 119 124 126 128 126 127 131 131 133 136 138 140 138 139 143 143 143 135 126 132 134 113 100 97 90 79 60 30 10 352 352 357 359 2 3 1 358 350 343 334 322 310 304 302 303 304 306 307 306 304 299 297
209 118 157 210 162 112 115 175 18 112 133 217 188 260 281 271 64 164 125 100 104 128 130 124 130 135 133 133 129 119 112 108 103 100 97 89 88 91 93 98 104 106 107 107 108 114 121 125 127 125 126 128 130 132 133 135 137 135 135 136 136 139 139 132 126 115 103 96 91 85 78 65 49 37 29 25 24 23 21 19 16 14 9 3 359 354 345 333 324 318 314 312 312 310 307 304 304
109 147 194 191 74 71 114 135 24 81 203 232 170 209 248 209 232 233 157 156 181 185 173 155 151 156 155 143 128 118 113 107 99 96 95 93 93 93 95 99 103 107 109 109 111 115 121 125 126 126 125 126 128 130 131 131 131 129 127 128 125 124 124 119 113 106 101 96 90 83 79 72 63 56 50 45 42 39 36 32 28 25 20 15 12 8 5 360 353 348 341 332 326 321 317 315 315
121 180 201 113 100 276 168 163 163 156 198 257 233 218 223 206 202 199 198 202 198 191 185 171 166 173 166 144 132 123 117 115 111 110 103 98 100 99 101 102 103 108 110 111 114 117 120 122 124 124 121 122 125 126 127 125 123 121 119 119 118 115 114 112 109 106 101 96 90 84 81 76 69 63 57 53 49 45 42 38 34 30 26 23 19 15 12 8 2 358 352 345 340 332 327 327 328
112 49 40 75 146 176 172 189 178 149 178 232 265 252 242 238 206 183 198 204 188 182 189 183 177 179 169 149 146 141 138 144 136 129 119 106 106 106 108 111 109 111 113 114 117 117 116 118 120 120 118 119 120 119 119 118 115 116 114 113 112 110 111 110 108 106 101 95 89 83 80 75 69 64 58 53 49 44 40 37 32 29 25 22 19 15 12 7 4 0 355 349 346 341 336 335 336
170 139 152 173 165 127 142 251 172 134 166 207 213 255 258 254 216 186 197 197 186 182 183 183 177 174 165 152 156 156 152 155 141 131 126 113 112 111 114 118 116 116 117 117 118 116 116 117 117 118 118 117 116 115 116 115 113 114 113 110 108 106 105 106 105 103 98 93 88 82 76 71 66 61 54 49 44 39 34 30 26 23 20 16 14 11 7 3 360 358 355 351 348 344 340 338 336
167 170 180 178 152 125 124 267 249 124 151 183 174 243 268 261 349 343 199 187 185 180 174 176 173 169 163 155 158 160 152 148 139 131 127 120 120 122 123 124 121 120 118 117 118 117 117 117 117 119 118 115 115 115 115 115 115 115 113 110 109 105 102 100 98 95 92 89 84 78 72 66 60 54 47 42 38 34 30 26 23 20 17 13 10 7 4 1 357 354 353 350 347 342 338 335 332